| time (UTC) | temp F | wind direction | speed MPH | gust MPH | rain 1hr in | rain 24hr in | rain mn in | humidity % | barometer mb |
| 20260508010702 | 71 | 161 | 3.0 | 6.0 | 0.00 | 0.00 | 0.00 | 38 | 1014.6 |
| 20260508003702 | 73 | 169 | 2.0 | 6.0 | 0.00 | 0.00 | 0.00 | 35 | 1014.3 |
| 20260508003203 | 73 | 164 | 4.0 | 8.0 | 0.00 | 0.00 | 0.00 | 34 | 1014.3 |
| 20260508000703 | 74 | 155 | 2.0 | 9.0 | 0.00 | 0.00 | 0.00 | 33 | 1014.4 |
| 20260508000204 | 74 | 170 | 1.0 | 13.0 | 0.00 | 0.00 | 0.00 | 33 | 1014.4 |
| 20260507233703 | 75 | 155 | 5.0 | 9.0 | 0.00 | 0.00 | 0.00 | 31 | 1014.7 |
| 20260507233205 | 76 | 159 | 3.0 | 10.0 | 0.00 | 0.00 | 0.00 | 31 | 1014.7 |
| 20260507230703 | 78 | 181 | 3.0 | 9.0 | 0.00 | 0.00 | 0.00 | 28 | 1015.1 |
| 20260507223703 | 76 | 219 | 1.0 | 5.0 | 0.00 | 0.00 | 0.00 | 29 | 1015.3 |
| 20260507223202 | 76 | 274 | 3.0 | 5.0 | 0.00 | 0.00 | 0.00 | 29 | 1015.4 |
| 20260507220704 | 75 | 182 | 2.0 | 3.0 | 0.00 | 0.00 | 0.00 | 32 | 1015.6 |
| 20260507220203 | 76 | 170 | 4.0 | 8.0 | 0.00 | 0.00 | 0.00 | 30 | 1015.6 |
| 20260507213703 | 74 | 181 | 4.0 | 12.0 | 0.00 | 0.00 | 0.00 | 32 | 1015.9 |
| 20260507213202 | 75 | 155 | 2.0 | 9.0 | 0.00 | 0.00 | 0.00 | 34 | 1015.9 |
| 20260507203703 | 74 | 331 | 2.0 | 8.0 | 0.00 | 0.00 | 0.00 | 35 | 1017.0 |
| 20260507203203 | 75 | 256 | 2.0 | 12.0 | 0.00 | 0.00 | 0.00 | 34 | 1017.1 |
| 20260507200702 | 74 | 344 | 4.0 | 10.0 | 0.00 | 0.00 | 0.00 | 33 | 1017.4 |
| 20260507200203 | 74 | 273 | 2.0 | 10.0 | 0.00 | 0.00 | 0.00 | 37 | 1017.5 |
| 20260507193703 | 73 | 249 | 2.0 | 7.0 | 0.00 | 0.00 | 0.00 | 32 | 1018.0 |
| 20260507193203 | 72 | 6 | 2.0 | 8.0 | 0.00 | 0.00 | 0.00 | 38 | 1018.0 |
| 20260507190703 | 71 | 325 | 2.0 | 9.0 | 0.00 | 0.00 | 0.00 | 41 | 1018.3 |
| 20260507190203 | 71 | 197 | 2.0 | 8.0 | 0.00 | 0.00 | 0.00 | 42 | 1018.4 |
| 20260507183703 | 71 | 203 | 2.0 | 6.0 | 0.00 | 0.00 | 0.00 | 44 | 1018.6 |
| 20260507180703 | 69 | 182 | 2.0 | 5.0 | 0.00 | 0.00 | 0.00 | 44 | 1019.4 |
| 20260507180203 | 69 | 194 | 3.0 | 12.0 | 0.00 | 0.00 | 0.00 | 45 | 1019.4 |
| 20260507173703 | 69 | 202 | 2.0 | 6.0 | 0.00 | 0.00 | 0.00 | 47 | 1019.8 |
| 20260507173203 | 68 | 224 | 2.0 | 12.0 | 0.00 | 0.00 | 0.00 | 48 | 1020.0 |
| 20260507170703 | 66 | 219 | 2.0 | 6.0 | 0.00 | 0.00 | 0.00 | 46 | 1020.3 |
| 20260507170203 | 67 | 210 | 2.0 | 13.0 | 0.00 | 0.00 | 0.00 | 48 | 1020.4 |
| 20260507163703 | 66 | 247 | 3.0 | 12.0 | 0.00 | 0.00 | 0.00 | 46 | 1020.9 |
| 20260507163203 | 65 | 226 | 3.0 | 9.0 | 0.00 | 0.00 | 0.00 | 47 | 1020.9 |
| 20260507153703 | 64 | 198 | 2.0 | 8.0 | 0.00 | 0.00 | 0.00 | 50 | 1021.3 |
| 20260507153203 | 64 | 249 | 2.0 | 7.0 | 0.00 | 0.00 | 0.00 | 50 | 1021.4 |
| 20260507150703 | 62 | 241 | 1.0 | 5.0 | 0.00 | 0.00 | 0.00 | 52 | 1021.6 |
| 20260507143203 | 60 | 241 | 1.0 | 7.0 | 0.00 | 0.00 | 0.00 | 56 | 1022.1 |
| 20260507140703 | 57 | 217 | 2.0 | 3.0 | 0.00 | 0.00 | 0.00 | 62 | 1022.3 |
| 20260507140202 | 57 | 206 | 1.0 | 5.0 | 0.00 | 0.00 | 0.00 | 63 | 1022.3 |
| 20260507133702 | 54 | 359 | 0.0 | 0.0 | 0.00 | 0.00 | 0.00 | 74 | 1022.4 |
| 20260507133204 | 53 | 1 | 0.0 | 0.0 | 0.00 | 0.00 | 0.00 | 78 | 1022.3 |
| 20260507130204 | 48 | 0 | 0.0 | 1.0 | 0.00 | 0.00 | 0.00 | 86 | 1022.1 |
| 20260507123203 | 43 | 7 | 0.0 | 0.0 | 0.00 | 0.00 | 0.00 | 86 | 1021.7 |
| 20260507120703 | 42 | 1 | 0.0 | 0.0 | 0.00 | 0.00 | 0.00 | 85 | 1021.6 |
| 20260507120203 | 42 | 1 | 0.0 | 0.0 | 0.00 | 0.00 | 0.00 | 85 | 1021.5 |
| 20260507113203 | 42 | 3 | 0.0 | 0.0 | 0.00 | 0.00 | 0.00 | 84 | 1021.3 |
| 20260507110703 | 42 | 2 | 0.0 | 0.0 | 0.00 | 0.00 | 0.00 | 83 | 1021.1 |
| 20260507110203 | 42 | 1 | 0.0 | 0.0 | 0.00 | 0.00 | 0.00 | 83 | 1021.1 |
| 20260507103703 | 43 | 1 | 0.0 | 0.0 | 0.00 | 0.00 | 0.00 | 82 | 1021.4 |
| 20260507103203 | 43 | 1 | 0.0 | 0.0 | 0.00 | 0.00 | 0.00 | 82 | 1021.3 |
| 20260507100703 | 44 | 1 | 0.0 | 0.0 | 0.00 | 0.00 | 0.00 | 82 | 1021.3 |
| 20260507100203 | 44 | 1 | 0.0 | 0.0 | 0.00 | 0.00 | 0.00 | 81 | 1021.4 |
| 20260507093703 | 45 | 1 | 0.0 | 1.0 | 0.00 | 0.00 | 0.00 | 82 | 1021.4 |
| 20260507093202 | 45 | 1 | 0.0 | 1.0 | 0.00 | 0.00 | 0.00 | 82 | 1021.4 |
| 20260507090702 | 44 | 1 | 0.0 | 0.0 | 0.00 | 0.00 | 0.00 | 81 | 1021.2 |
| 20260507090204 | 44 | 1 | 0.0 | 0.0 | 0.00 | 0.00 | 0.00 | 80 | 1021.1 |
| 20260507083703 | 45 | 2 | 0.0 | 0.0 | 0.00 | 0.00 | 0.00 | 79 | 1021.0 |
| 20260507083202 | 46 | 2 | 0.0 | 0.0 | 0.00 | 0.00 | 0.00 | 78 | 1021.0 |
| 20260507080703 | 47 | 7 | 0.0 | 0.0 | 0.00 | 0.00 | 0.00 | 77 | 1021.2 |
| 20260507080204 | 47 | 7 | 0.0 | 1.0 | 0.00 | 0.00 | 0.00 | 77 | 1021.4 |
| 20260507073703 | 48 | 17 | 1.0 | 2.0 | 0.00 | 0.00 | 0.00 | 76 | 1021.8 |
| 20260507073203 | 48 | 17 | 1.0 | 3.0 | 0.00 | 0.00 | 0.00 | 76 | 1021.8 |
| 20260507070703 | 47 | 23 | 0.0 | 0.0 | 0.00 | 0.00 | 0.00 | 75 | 1021.0 |
| 20260507070203 | 47 | 22 | 0.0 | 1.0 | 0.00 | 0.00 | 0.00 | 75 | 1020.9 |
| 20260507063703 | 48 | 23 | 0.0 | 0.0 | 0.00 | 0.00 | 0.00 | 73 | 1021.1 |
| 20260507063203 | 48 | 22 | 0.0 | 1.0 | 0.00 | 0.00 | 0.00 | 73 | 1021.2 |
| 20260507060703 | 50 | 11 | 0.0 | 0.0 | 0.00 | 0.00 | 0.00 | 70 | 1021.5 |
| 20260507053703 | 50 | 32 | 1.0 | 2.0 | 0.00 | 0.00 | 0.00 | 69 | 1022.1 |
| 20260507053203 | 50 | 33 | 0.0 | 2.0 | 0.00 | 0.00 | 0.00 | 69 | 1022.0 |
| 20260507050704 | 51 | 49 | 0.0 | 3.0 | 0.00 | 0.00 | 0.00 | 68 | 1021.5 |
| 20260507050203 | 51 | 127 | 0.0 | 2.0 | 0.00 | 0.00 | 0.00 | 68 | 1021.3 |
| 20260507043703 | 51 | 125 | 0.0 | 1.0 | 0.00 | 0.00 | 0.00 | 70 | 1021.2 |
| 20260507040703 | 51 | 113 | 0.0 | 0.0 | 0.00 | 0.00 | 0.00 | 68 | 1021.0 |
| 20260507040202 | 51 | 113 | 0.0 | 0.0 | 0.00 | 0.00 | 0.00 | 67 | 1021.0 |
| 20260507033703 | 53 | 116 | 0.0 | 1.0 | 0.00 | 0.00 | 0.00 | 66 | 1020.9 |
| 20260507033203 | 53 | 116 | 0.0 | 1.0 | 0.00 | 0.00 | 0.00 | 65 | 1020.7 |
| 20260507030703 | 54 | 109 | 0.0 | 1.0 | 0.00 | 0.00 | 0.00 | 64 | 1020.6 |
| 20260507030203 | 54 | 109 | 0.0 | 1.0 | 0.00 | 0.00 | 0.00 | 64 | 1020.4 |
| 20260507023203 | 56 | 108 | 0.0 | 1.0 | 0.00 | 0.00 | 0.00 | 61 | 1020.2 |
| 20260507020702 | 57 | 107 | 0.0 | 2.0 | 0.00 | 0.00 | 0.00 | 58 | 1020.1 |
| 20260507020203 | 57 | 20 | 1.0 | 3.0 | 0.00 | 0.00 | 0.00 | 58 | 1019.9 |
| 20260507013703 | 59 | 97 | 0.0 | 2.0 | 0.00 | 0.00 | 0.00 | 56 | 1019.6 |